Location: Drocourt
(49.0571°N, 1.7669°E)
Time: 21:15:13
(UTC+00:00)

Transit 4A - Pass Details

Date: 16 April 2024
Orbit: 871 x 971 km, 66.8° (Epoch: 18 May)

Event Time Altitude Azimuth Distance (km) Brightness Sun altitude
Rises 19:54:06 0° 323° (NW) 3,479 12.3 -10.8°
Reaches altitude 10° 19:57:07 10° 338° (NNW) 2,533 11.0 -11.3°
Maximum altitude 20:01:45 24° 30° (NNE) 1,753 9.4 -11.9°
Drops below altitude 10° 20:06:21 10° 83° (E) 2,528 9.7 -12.5°
Enters shadow 20:06:35 - 84° (E) 2,594 9.8 -12.6°
Sets 20:09:22 0° 97° (E) 3,472 - -13.0°
